Location: Fort Collins
(40.5853°N, 105.0844°W)
Time: 16:12:15
(UTC-06:00)

ISS - Pass Details

Date: 12 December 2013
Orbit: 402 x 404 km, 51.6° (Epoch: 30 May)

Event Time Altitude Azimuth Distance (km) Brightness Sun altitude
Rises 16:50:34 0° 266° (W) 2,308 2.0 -3.7°
Reaches altitude 10° 16:52:54 10° 281° (WNW) 1,449 0.4 -4.0°
Maximum altitude 16:55:34 23° 337° (NNW) 904 -1.6 -4.5°
Drops below altitude 10° 16:58:16 10° 33° (NNE) 1,458 -1.0 -5.0°
Enters shadow 16:59:24 - 42° (NE) 1,860 -0.6 -5.1°
